| time (UTC) | temp C | wind direction | speed KPH | gust KPH | rain 1hr cm | rain 24hr cm | rain mn cm | humidity % | barometer mb |
| 20260506232231 | 8 | 135 | 0.0 | 1.6 | 0.00 | 0.00 | 0.00 | 88 | 1009.2 |
| 20260506231229 | 8 | 23 | 0.0 | 0.0 | 0.00 | 0.00 | 0.00 | 87 | 1009.3 |
| 20260506230216 | 8 | 23 | 0.0 | 3.2 | 0.00 | 0.00 | 0.00 | 87 | 1009.3 |
| 20260506225218 | 8 | 68 | 0.0 | 0.0 | 0.00 | 0.00 | 0.00 | 87 | 1009.3 |
| 20260506224658 | 8 | 23 | 1.6 | 4.8 | 0.00 | 0.00 | 0.00 | 87 | 1009.3 |
| 20260506223704 | 8 | 270 | 0.0 | 0.0 | 0.00 | 0.00 | 0.00 | 87 | 1009.1 |
| 20260506222217 | 8 | 45 | 0.0 | 3.2 | 0.00 | 0.00 | 0.00 | 88 | 1009.1 |
| 20260506221218 | 8 | 315 | 0.0 | 0.0 | 0.00 | 0.00 | 0.00 | 88 | 1009.0 |
| 20260506220203 | 8 | 315 | 0.0 | 1.6 | 0.00 | 0.00 | 0.00 | 88 | 1009.0 |
| 20260506215202 | 8 | 23 | 0.0 | 0.0 | 0.00 | 0.00 | 0.61 | 88 | 1008.6 |
| 20260506214200 | 8 | 270 | 0.0 | 0.0 | 0.00 | 0.00 | 0.61 | 88 | 1008.6 |
| 20260506213152 | 8 | 338 | 0.0 | 0.0 | 0.00 | 0.00 | 0.61 | 88 | 1008.6 |
| 20260506212150 | 8 | 338 | 0.0 | 0.0 | 0.00 | 0.00 | 0.61 | 88 | 1008.6 |
| 20260506211142 | 8 | 338 | 0.0 | 0.0 | 0.00 | 0.00 | 0.61 | 87 | 1008.4 |
| 20260506210139 | 8 | 0 | 0.0 | 0.0 | 0.00 | 0.00 | 0.61 | 87 | 1008.4 |
| 20260506205134 | 8 | 113 | 0.0 | 0.0 | 0.00 | 0.00 | 0.61 | 86 | 1008.5 |
| 20260506204134 | 8 | 293 | 0.0 | 0.0 | 0.00 | 0.00 | 0.61 | 86 | 1008.5 |
| 20260506203132 | 9 | 338 | 0.0 | 0.0 | 0.00 | 0.00 | 0.61 | 86 | 1008.5 |
| 20260506201132 | 9 | 68 | 0.0 | 0.0 | 0.00 | 0.00 | 0.61 | 86 | 1008.5 |
| 20260506200554 | 9 | 68 | 0.0 | 0.0 | 0.00 | 0.00 | 0.61 | 85 | 1008.5 |
| 20260506195120 | 9 | 338 | 0.0 | 0.0 | 0.00 | 0.00 | 0.61 | 85 | 1008.5 |
| 20260506194126 | 9 | 68 | 0.0 | 3.2 | 0.00 | 0.00 | 0.61 | 85 | 1008.5 |
| 20260506193122 | 9 | 23 | 0.0 | 3.2 | 0.00 | 0.00 | 0.61 | 85 | 1008.3 |
| 20260506192121 | 9 | 0 | 0.0 | 0.0 | 0.00 | 0.00 | 0.61 | 85 | 1008.3 |
| 20260506191116 | 9 | 23 | 0.0 | 0.0 | 0.00 | 0.00 | 0.61 | 85 | 1008.3 |
| 20260506190115 | 9 | 23 | 0.0 | 4.8 | 0.00 | 0.00 | 0.61 | 84 | 1008.3 |
| 20260506185107 | 10 | 45 | 0.0 | 4.8 | 0.00 | 0.00 | 0.61 | 84 | 1008.2 |
| 20260506184108 | 10 | 0 | 0.0 | 4.8 | 0.00 | 0.00 | 0.61 | 84 | 1008.2 |
| 20260506183108 | 10 | 45 | 1.6 | 6.4 | 0.00 | 0.00 | 0.61 | 84 | 1008.0 |
| 20260506182107 | 10 | 45 | 0.0 | 8.0 | 0.00 | 0.00 | 0.61 | 83 | 1008.0 |
| 20260506181113 | 10 | 23 | 0.0 | 4.8 | 0.00 | 0.00 | 0.61 | 83 | 1007.9 |
| 20260506180109 | 10 | 45 | 0.0 | 3.2 | 0.00 | 0.00 | 0.61 | 82 | 1007.9 |
| 20260506175058 | 10 | 158 | 1.6 | 4.8 | 0.00 | 0.00 | 0.61 | 82 | 1008.0 |
| 20260506174057 | 11 | 68 | 1.6 | 8.0 | 0.00 | 0.00 | 0.61 | 81 | 1008.0 |
| 20260506173052 | 11 | 68 | 0.0 | 3.2 | 0.00 | 0.00 | 0.61 | 82 | 1007.8 |
| 20260506172052 | 11 | 45 | 0.0 | 4.8 | 0.00 | 0.00 | 0.61 | 83 | 1007.8 |
| 20260506171056 | 11 | 23 | 3.2 | 0.0 | 0.00 | 0.00 | 0.61 | 83 | 1007.5 |
| 20260506170236 | 10 | 68 | 3.2 | 0.0 | 0.00 | 0.00 | 0.61 | 85 | 1007.5 |
| 20260506165336 | 11 | 45 | 4.8 | 6.4 | 0.00 | 0.00 | 0.61 | 84 | 1007.5 |
| 20260506164336 | 10 | 23 | 4.8 | 9.7 | 0.00 | 0.00 | 0.61 | 84 | 1007.5 |
| 20260506163337 | 10 | 68 | 3.2 | 8.0 | 0.00 | 0.00 | 0.61 | 85 | 1007.4 |
| 20260506162336 | 10 | 45 | 3.2 | 9.7 | 0.00 | 0.00 | 0.61 | 85 | 1007.4 |
| 20260506161337 | 10 | 45 | 4.8 | 12.9 | 0.00 | 0.00 | 0.61 | 86 | 1007.5 |
| 20260506160340 | 10 | 338 | 4.8 | 11.3 | 0.00 | 0.00 | 0.61 | 87 | 1007.5 |
| 20260506155341 | 10 | 23 | 3.2 | 8.0 | 0.00 | 0.00 | 0.61 | 88 | 1007.3 |
| 20260506154325 | 10 | 203 | 3.2 | 12.9 | 0.00 | 0.00 | 0.61 | 89 | 1007.3 |
| 20260506153322 | 10 | 45 | 1.6 | 4.8 | 0.00 | 0.00 | 0.61 | 89 | 1007.2 |
| 20260506152315 | 10 | 315 | 3.2 | 9.7 | 0.00 | 0.00 | 0.61 | 90 | 1007.2 |
| 20260506151308 | 10 | 23 | 4.8 | 12.9 | 0.00 | 0.00 | 0.61 | 90 | 1007.0 |
| 20260506150309 | 10 | 23 | 3.2 | 12.9 | 0.00 | 0.00 | 0.61 | 91 | 1007.0 |
| 20260506144303 | 10 | 23 | 1.6 | 6.4 | 0.00 | 0.00 | 0.61 | 91 | 1007.1 |
| 20260506143306 | 10 | 68 | 3.2 | 8.0 | 0.00 | 0.00 | 0.61 | 91 | 1007.0 |
| 20260506142301 | 10 | 23 | 3.2 | 6.4 | 0.00 | 0.00 | 0.61 | 91 | 1007.0 |
| 20260506141303 | 10 | 23 | 3.2 | 6.4 | 0.00 | 0.00 | 0.61 | 92 | 1006.9 |
| 20260506140304 | 10 | 45 | 1.6 | 4.8 | 0.00 | 0.00 | 0.61 | 92 | 1006.9 |
| 20260506135301 | 9 | 315 | 3.2 | 11.3 | 0.00 | 0.00 | 0.61 | 92 | 1007.3 |
| 20260506134257 | 10 | 23 | 3.2 | 11.3 | 0.00 | 0.00 | 0.61 | 92 | 1007.3 |
| 20260506133256 | 9 | 0 | 1.6 | 6.4 | 0.00 | 0.00 | 0.61 | 92 | 1007.0 |
| 20260506132259 | 9 | 23 | 1.6 | 8.0 | 0.00 | 0.00 | 0.61 | 93 | 1007.0 |
| 20260506131256 | 9 | 45 | 1.6 | 6.4 | 0.00 | 0.00 | 0.61 | 93 | 1007.0 |
| 20260506130301 | 9 | 23 | 4.8 | 14.5 | 0.00 | 0.00 | 0.61 | 92 | 1007.0 |
| 20260506125240 | 9 | 68 | 3.2 | 6.4 | 0.00 | 0.00 | 0.61 | 93 | 1007.0 |
| 20260506124242 | 9 | 68 | 4.8 | 11.3 | 0.00 | 0.00 | 0.61 | 93 | 1007.0 |
| 20260506123242 | 9 | 0 | 3.2 | 4.8 | 0.00 | 0.00 | 0.61 | 93 | 1006.6 |
| 20260506122240 | 9 | 293 | 3.2 | 11.3 | 0.00 | 0.00 | 0.61 | 93 | 1006.6 |
| 20260506121240 | 8 | 338 | 3.2 | 14.5 | 0.00 | 0.00 | 0.61 | 93 | 1006.8 |
| 20260506120246 | 8 | 45 | 1.6 | 14.5 | 0.00 | 0.00 | 0.61 | 93 | 1006.8 |
| 20260506115717 | 9 | 23 | 3.2 | 6.4 | 0.00 | 0.00 | 0.61 | 94 | 1006.7 |
| 20260506114240 | 9 | 23 | 1.6 | 4.8 | 0.00 | 0.00 | 0.61 | 94 | 1006.7 |
| 20260506113232 | 9 | 45 | 3.2 | 4.8 | 0.00 | 0.00 | 0.61 | 95 | 1006.5 |
| 20260506112703 | 9 | 23 | 1.6 | 4.8 | 0.00 | 0.00 | 0.61 | 95 | 1006.5 |
| 20260506111226 | 9 | 180 | 1.6 | 3.2 | 0.00 | 0.00 | 0.61 | 95 | 1006.6 |
| 20260506110233 | 9 | 68 | 3.2 | 9.7 | 0.00 | 0.00 | 0.61 | 95 | 1006.6 |
| 20260506105227 | 8 | 90 | 3.2 | 8.0 | 0.00 | 0.00 | 0.61 | 96 | 1006.5 |
| 20260506104225 | 9 | 270 | 1.6 | 8.0 | 0.00 | 0.00 | 0.61 | 96 | 1006.5 |
| 20260506103223 | 8 | 0 | 1.6 | 0.0 | 0.00 | 0.00 | 0.56 | 96 | 1006.1 |
| 20260506101325 | 8 | 0 | 1.6 | 3.2 | 0.00 | 0.20 | 0.56 | 96 | 1006.1 |
| 20260506100326 | 8 | 270 | 1.6 | 4.8 | 0.00 | 0.20 | 0.56 | 96 | 1006.1 |
| 20260506095323 | 8 | 23 | 1.6 | 4.8 | 0.00 | 0.20 | 0.56 | 96 | 1006.1 |
| 20260506094312 | 8 | 315 | 3.2 | 6.4 | 0.00 | 0.20 | 0.56 | 96 | 1006.1 |
| 20260506093749 | 8 | 23 | 3.2 | 6.4 | 0.00 | 0.20 | 0.56 | 96 | 1006.0 |
| 20260506092310 | 8 | 45 | 1.6 | 8.0 | 0.00 | 0.20 | 0.56 | 96 | 1006.0 |
| 20260506091311 | 8 | 0 | 0.0 | 6.4 | 0.00 | 0.20 | 0.56 | 97 | 1005.8 |
| 20260506090313 | 8 | 68 | 1.6 | 6.4 | 0.08 | 0.20 | 0.56 | 97 | 1005.8 |
| 20260506085314 | 8 | 45 | 1.6 | 6.4 | 0.08 | 0.20 | 0.56 | 96 | 1005.6 |
| 20260506084312 | 8 | 68 | 0.0 | 6.4 | 0.08 | 0.20 | 0.56 | 97 | 1005.6 |
| 20260506083258 | 8 | 23 | 1.6 | 8.0 | 0.08 | 0.20 | 0.56 | 97 | 1005.7 |
| 20260506082257 | 8 | 0 | 0.0 | 6.4 | 0.08 | 0.20 | 0.56 | 97 | 1005.7 |
| 20260506081258 | 8 | 23 | 1.6 | 6.4 | 0.08 | 0.20 | 0.56 | 97 | 1005.3 |
| 20260506080256 | 8 | 23 | 0.0 | 3.2 | 0.00 | 0.15 | 0.48 | 97 | 1005.3 |
| 20260506073258 | 7 | 315 | 0.0 | 0.0 | 0.08 | 0.15 | 0.48 | 97 | 1005.1 |
| 20260506072253 | 7 | 68 | 1.6 | 6.4 | 0.08 | 0.15 | 0.48 | 97 | 1005.1 |
| 20260506071249 | 7 | 315 | 1.6 | 6.4 | 0.08 | 0.15 | 0.48 | 97 | 1004.9 |
| 20260506070736 | 7 | 45 | 3.2 | 11.3 | 0.15 | 0.15 | 0.48 | 97 | 1004.9 |
| 20260506062246 | 7 | 45 | 1.6 | 4.8 | 0.08 | 0.08 | 0.41 | 97 | 1004.8 |
| 20260506061246 | 7 | 23 | 1.6 | 8.0 | 0.08 | 0.08 | 0.41 | 97 | 1004.6 |
| 20260506060243 | 7 | 315 | 1.6 | 6.4 | 0.00 | 0.00 | 0.41 | 97 | 1004.6 |
| 20260506051235 | 8 | 23 | 0.0 | 4.8 | 0.00 | 0.00 | 0.33 | 96 | 1004.4 |
| 20260506050714 | 8 | 90 | 0.0 | 0.0 | 0.00 | 0.00 | 0.33 | 97 | 1004.4 |
| 20260506044226 | 8 | 0 | 0.0 | 0.0 | 0.00 | 0.00 | 0.33 | 96 | 1004.3 |
| 20260506043334 | 8 | 0 | 0.0 | 1.6 | 0.08 | 0.33 | 0.33 | 96 | 1004.6 |
| 20260506042330 | 8 | 45 | 0.0 | 0.0 | 0.08 | 0.33 | 0.33 | 96 | 1004.6 |
| 20260506041802 | 8 | 23 | 0.0 | 3.2 | 0.08 | 0.33 | 0.33 | 96 | 1004.6 |
| 20260506040321 | 8 | 23 | 0.0 | 3.2 | 0.00 | 0.28 | 0.28 | 96 | 1004.6 |
| 20260506035315 | 8 | 23 | 0.0 | 0.0 | 0.08 | 0.28 | 0.28 | 96 | 1004.8 |
| 20260506034315 | 8 | 0 | 0.0 | 3.2 | 0.08 | 0.28 | 0.28 | 96 | 1004.8 |
| 20260506033319 | 8 | 315 | 0.0 | 3.2 | 0.08 | 0.28 | 0.28 | 96 | 1004.9 |
| 20260506032750 | 8 | 0 | 0.0 | 0.0 | 0.08 | 0.28 | 0.28 | 96 | 1004.9 |
| 20260506031304 | 8 | 23 | 0.0 | 1.6 | 0.15 | 0.28 | 0.28 | 96 | 1005.0 |
| 20260506030305 | 8 | 45 | 0.0 | 0.0 | 0.15 | 0.28 | 0.28 | 96 | 1005.0 |
| 20260506025305 | 8 | 23 | 0.0 | 3.2 | 0.08 | 0.20 | 0.20 | 96 | 1005.1 |
| 20260506024301 | 8 | 45 | 0.0 | 4.8 | 0.08 | 0.20 | 0.20 | 96 | 1005.1 |
| 20260506023302 | 8 | 338 | 0.0 | 4.8 | 0.08 | 0.20 | 0.20 | 96 | 1005.4 |
| 20260506022305 | 8 | 0 | 0.0 | 1.6 | 0.08 | 0.20 | 0.20 | 96 | 1005.4 |
| 20260506020737 | 8 | 68 | 0.0 | 3.2 | 0.05 | 0.13 | 0.13 | 95 | 1005.5 |
| 20260506015250 | 8 | 338 | 0.0 | 3.2 | 0.13 | 0.13 | 0.13 | 95 | 1005.7 |
| 20260506014721 | 8 | 45 | 0.0 | 4.8 | 0.13 | 0.13 | 0.13 | 95 | 1005.7 |
| 20260506013247 | 8 | 315 | 0.0 | 3.2 | 0.13 | 0.13 | 0.13 | 95 | 1005.8 |
| 20260506012731 | 8 | 68 | 0.0 | 6.4 | 0.13 | 0.13 | 0.13 | 95 | 1005.8 |
| 20260506011247 | 8 | 45 | 0.0 | 4.8 | 0.08 | 0.08 | 0.08 | 95 | 1005.8 |
| 20260506010249 | 8 | 45 | 0.0 | 4.8 | 0.08 | 0.08 | 0.08 | 94 | 1005.8 |
| 20260506005726 | 8 | 23 | 0.0 | 3.2 | 0.00 | 0.00 | 0.00 | 94 | 1006.2 |
| 20260506004248 | 8 | 23 | 0.0 | 0.0 | 0.00 | 0.00 | 0.00 | 94 | 1006.2 |
| 20260506003249 | 8 | 23 | 0.0 | 1.6 | 0.00 | 0.00 | 0.00 | 94 | 1006.4 |
| 20260506002247 | 8 | 23 | 0.0 | 1.6 | 0.00 | 0.00 | 0.00 | 94 | 1006.4 |
| 20260506001247 | 8 | 23 | 0.0 | 4.8 | 0.00 | 0.00 | 0.00 | 93 | 1006.6 |
| 20260506000717 | 8 | 45 | 0.0 | 4.8 | 0.00 | 0.00 | 0.00 | 93 | 1006.6 |
| 20260505235234 | 8 | 113 | 0.0 | 3.2 | 0.00 | 0.00 | 0.00 | 93 | 1006.9 |
| 20260505234234 | 8 | 113 | 1.6 | 4.8 | 0.00 | 0.00 | 0.00 | 93 | 1006.9 |
| 20260505233235 | 8 | 180 | 0.0 | 3.2 | 0.00 | 0.00 | 0.00 | 93 | 1007.0 |